Temperature
19 19 19 19 18 18 18 18 17 17 17 17 17 17 17 17 17 16 16 16 16 16 16 16 16 16 16 15 15 15 15 15 15 15 14 14 14 14 14 14 14 14 14
19 19 19 19 19 18 18 18 18 17 17 17 17 17 17 17 16 16 16 16 16 16 16 16 16 15 15 15 15 15 15 15 15 15 14 14 14 14 14 14 14 14 14
19 19 19 19 18 18 18 18 17 17 17 17 17 17 17 16 16 16 16 16 16 16 16 16 16 15 15 15 15 15 15 15 14 14 14 14 14 13 13 13 13 13 13
19 19 19 18 18 18 18 18 17 17 17 17 17 17 17 16 16 16 16 16 16 16 16 16 15 15 15 15 15 15 15 15 15 14 14 14 14 14 13 13 13 13 13
19 19 19 18 18 18 18 18 17 17 17 17 17 17 16 16 16 16 16 16 16 16 16 16 15 15 15 15 15 15 15 15 15 15 14 14 14 14 13 13 13 13 13
19 19 19 18 18 18 18 18 17 17 17 17 17 17 16 16 16 16 16 16 16 16 15 15 15 15 15 15 15 15 15 15 15 15 14 14 14 14 14 13 13 12 12
19 19 18 18 18 18 18 17 17 17 17 17 17 17 16 16 16 16 16 16 16 16 15 15 15 15 15 15 15 15 15 15 15 15 14 14 14 14 14 14 13 12 12
19 19 18 18 18 18 17 17 17 17 17 17 17 16 16 16 16 16 16 16 16 16 15 15 15 15 15 15 15 15 15 14 15 14 14 14 14 14 14 14 13 12 12
18 18 18 18 18 17 17 17 17 17 17 17 17 16 16 16 16 16 16 16 16 15 15 15 15 15 15 15 15 15 14 14 14 14 14 14 14 14 14 14 13 13 12
18 18 18 18 17 17 17 17 17 17 16 16 16 16 16 16 16 16 16 16 15 15 15 15 15 15 15 15 15 14 14 14 14 14 14 14 14 14 14 13 13 13 13
18 18 18 17 17 17 17 17 17 16 16 16 16 16 16 16 16 16 16 15 15 15 15 15 15 15 15 15 15 14 14 14 14 14 14 14 14 13 13 13 13 13 13
18 18 17 17 17 17 17 16 16 16 16 16 16 16 16 16 16 15 15 15 15 15 15 15 15 15 15 15 14 14 14 14 14 14 14 14 13 13 13 13 13 13 12
17 17 17 17 17 16 16 16 16 16 16 16 16 16 15 15 15 15 15 15 15 15 15 15 15 15 14 14 14 14 14 14 14 14 14 13 13 13 13 13 13 12 12
17 17 17 16 16 16 16 16 16 16 16 15 15 15 15 15 15 15 15 15 15 15 15 15 15 15 14 14 14 14 14 14 14 13 13 13 13 13 13 12 12 12 12
16 16 16 16 16 16 16 15 15 15 15 15 15 15 15 15 15 15 15 15 15 15 15 14 14 14 14 14 14 14 14 14 13 13 13 13 13 13 12 12 12 12 12
16 16 16 16 16 15 15 15 15 15 15 15 15 15 15 15 15 14 14 14 14 14 14 14 14 14 14 14 14 14 13 13 13 13 13 13 12 12 12 12 12 12 12
16 16 16 16 15 15 15 15 15 15 15 15 15 14 14 14 14 14 14 14 14 14 14 14 14 14 14 14 13 13 13 13 13 13 13 12 12 12 12 12 12 12 11
16 16 16 16 15 15 15 15 15 14 14 14 14 14 14 14 14 14 14 14 14 14 14 14 14 14 14 13 13 13 13 13 13 13 12 12 12 12 12 12 12 11 11
16 16 16 16 15 15 14 14 14 14 14 14 14 14 14 14 14 14 14 14 13 14 13 13 13 13 13 13 13 13 13 13 12 12 12 12 12 12 12 11 11 11 11
16 16 15 15 15 15 14 14 14 14 13 13 13 13 13 13 13 13 13 13 13 13 13 13 13 13 13 13 13 13 13 12 12 12 12 12 12 12 11 11 11 11 11
16 16 15 15 15 14 14 14 14 13 13 13 13 13 13 13 13 13 13 13 13 13 13 13 13 13 13 13 13 12 12 12 12 12 12 12 11 11 11 11 11 11 10
15 15 15 14 14 14 14 14 13 13 13 13 13 13 13 13 13 13 12 12 12 12 12 12 12 12 12 12 12 12 12 12 12 12 12 11 11 11 11 11 10 10 10
15 15 14 14 14 13 13 13 13 13 13 13 13 12 12 12 12 12 12 12 12 12 12 12 12 12 12 12 12 12 12 12 12 11 11 11 11 11 10 10 10 10 10
14 14 14 14 13 13 13 13 13 13 13 13 12 12 12 12 12 12 12 12 12 12 12 12 12 12 12 12 12 12 11 11 11 11 11 11 10 10 10 10 10 9 9
14 14 14 13 13 13 13 13 13 13 12 12 12 12 12 12 12 12 11 11 12 12 12 12 11 11 11 11 11 11 11 11 11 11 11 10 10 10 10 10 9 9 9
14 13 13 13 13 13 13 13 12 12 12 12 12 12 12 12 11 11 11 11 11 11 11 11 11 11 11 11 11 11 11 11 11 11 10 10 10 10 10 9 9 9 9
Wind_Speed
5 4 5 5 5 5 5 4 4 3 4 3 3 3 2 2 2 2 4 5 6 6 6 4 4 4 4 4 4 4 4 3 3 4 3 4 4 4 3 4 4 5 6
4 4 4 5 5 5 4 4 4 4 5 4 3 3 3 2 2 1 3 4 6 6 6 5 4 4 4 4 4 4 3 2 2 3 3 2 4 4 4 3 3 3 5
8 6 5 5 5 5 5 5 4 4 5 5 3 3 3 3 2 1 1 2 4 5 5 6 4 4 4 4 3 4 4 3 1 1 3 3 2 1 3 3 3 3 3
7 6 6 5 5 5 5 5 5 5 4 6 6 6 4 3 3 2 2 2 3 4 6 6 5 4 3 4 4 3 3 4 2 1 1 2 4 3 0 3 3 2 2
7 7 6 6 5 5 5 5 5 5 5 6 7 6 4 3 2 2 2 2 2 3 5 5 5 4 3 3 3 3 3 3 3 2 2 2 1 2 3 1 1 2 2
6 6 5 4 4 3 4 5 6 5 5 5 5 6 6 5 5 4 3 2 1 1 3 4 4 4 3 4 3 3 3 2 2 2 2 3 3 3 3 2 1 0 1
6 6 5 4 4 4 4 5 5 4 4 5 6 6 7 7 7 5 5 4 2 2 3 3 4 3 3 3 3 3 3 3 3 2 2 2 2 3 3 4 2 1 0
6 6 6 5 4 5 5 5 6 4 4 5 5 5 6 5 4 5 5 5 4 4 4 4 4 4 4 4 3 3 3 3 3 2 2 2 1 2 3 4 4 2 1
6 6 5 5 5 5 5 6 6 4 4 4 4 3 4 5 5 5 5 4 4 4 4 4 4 3 3 4 4 3 3 3 2 2 2 2 1 2 2 3 4 4 2
5 4 5 5 4 4 4 4 5 4 4 4 4 4 4 4 5 5 5 5 4 4 4 4 4 3 3 4 4 3 2 3 2 2 3 2 1 1 2 3 2 2 3
5 5 4 4 3 3 3 4 3 3 3 3 3 2 3 3 4 4 5 5 5 5 5 5 4 4 3 3 4 4 4 4 2 2 3 2 2 2 2 2 2 2 3
4 4 4 3 2 2 2 3 3 3 3 3 3 3 3 3 4 4 4 4 5 5 5 4 4 4 4 4 4 5 4 4 3 3 3 2 2 2 2 2 2 2 2
3 3 3 3 3 2 2 3 3 3 3 3 3 3 3 3 3 4 3 3 4 5 5 5 5 4 4 4 4 4 4 4 3 3 3 3 4 3 2 2 3 2 3
4 3 3 3 3 2 3 3 2 3 4 4 4 4 4 4 4 3 3 3 4 5 5 5 5 5 5 4 3 4 4 3 3 2 3 3 4 4 4 3 3 4 4
3 4 3 3 2 2 2 2 2 2 4 4 4 4 4 3 3 3 2 2 3 4 4 5 4 4 4 4 4 4 4 4 3 2 2 3 4 5 5 4 4 5 4
5 5 4 3 3 3 3 2 2 2 3 4 4 3 3 3 3 2 2 2 2 2 3 4 4 4 4 5 6 5 4 4 4 2 1 2 2 4 5 6 7 7 6
5 5 5 5 4 4 3 3 3 2 3 3 3 2 3 3 3 3 3 3 2 2 2 3 4 4 5 6 7 8 5 4 4 3 3 2 2 3 3 4 5 5 6
5 6 5 5 4 3 2 3 3 3 3 3 2 2 3 3 3 4 3 2 2 2 2 2 3 4 4 6 7 8 5 4 3 3 3 4 3 3 4 4 4 2 2
6 6 6 5 4 4 3 4 3 3 3 3 3 3 4 4 3 4 3 3 2 2 2 2 3 4 4 6 7 7 4 3 2 2 3 4 4 5 7 6 4 3 1
3 4 5 4 4 4 4 5 3 3 3 3 3 3 4 5 4 4 3 2 2 2 2 2 2 4 3 5 7 7 4 3 2 2 2 4 5 6 7 6 5 4 2
3 4 5 5 5 4 5 5 4 4 5 3 3 3 4 5 4 4 3 3 3 2 2 2 2 2 3 5 7 7 5 5 4 3 2 3 6 7 7 7 5 6 4
2 3 4 4 4 5 5 5 5 5 3 3 3 3 4 4 3 4 3 3 3 3 2 2 1 1 2 3 5 7 7 6 5 4 3 4 6 7 7 6 6 7 6
2 3 4 3 3 5 6 7 6 4 3 3 4 3 3 3 4 4 4 3 3 3 2 2 2 2 2 2 5 6 7 7 4 4 5 5 6 6 5 6 7 6 4
2 2 3 3 4 4 6 6 5 5 5 5 4 3 3 3 3 3 3 4 4 4 3 3 4 3 2 3 3 3 3 4 4 3 4 5 5 3 4 4 4 4 4
2 3 4 5 5 5 5 5 5 5 5 5 4 3 3 4 3 3 4 5 5 6 6 5 5 5 5 6 7 5 5 4 4 4 2 1 2 2 2 2 2 3 3
3 3 3 4 5 5 4 4 5 6 6 5 4 4 3 3 3 3 2 4 5 6 8 8 7 6 7 7 7 8 7 7 8 5 3 4 4 5 5 5 4 4 4
Wind_Direction
202 177 169 159 154 151 147 146 139 142 136 134 141 137 140 138 124 140 143 148 137 132 128 126 120 119 120 125 123 115 99 92 102 87 54 31 38 49 45 57 68 69 71
186 181 169 162 165 167 165 158 154 155 157 159 164 161 151 146 144 132 120 141 142 143 138 131 135 129 118 114 121 122 114 121 122 120 103 40 15 16 27 38 67 64 72
184 186 177 180 176 178 179 173 169 164 166 156 131 110 86 73 70 77 104 129 145 142 138 136 134 136 137 144 148 145 143 155 184 153 138 137 186 340 1 21 41 47 54
181 182 179 185 187 192 187 177 171 168 166 154 145 147 152 164 190 179 167 140 134 137 146 146 145 143 144 150 164 159 155 148 173 227 161 162 156 151 70 358 9 32 47
175 181 186 186 187 185 183 181 166 164 166 165 164 160 162 177 164 144 143 141 133 143 150 150 148 151 163 170 167 152 151 155 168 175 158 117 110 133 149 176 346 16 14
170 176 184 175 180 171 164 159 157 171 177 171 166 169 174 173 158 157 165 172 163 161 162 157 153 161 168 177 175 163 159 156 153 158 154 155 162 170 158 168 176 134 346
165 169 173 178 183 173 169 163 157 169 177 174 177 180 181 177 175 174 176 176 178 187 193 166 166 172 179 184 172 157 152 150 145 152 158 166 180 166 153 149 161 155 312
167 175 183 183 186 182 174 167 169 174 174 178 189 189 180 179 186 184 179 182 188 191 184 174 180 182 181 178 162 152 159 151 148 149 145 146 168 156 159 158 153 144 27
173 170 170 170 170 169 172 171 172 177 182 186 187 192 186 183 189 187 179 181 185 180 173 170 176 179 176 168 158 151 158 144 147 148 139 130 152 145 157 155 160 155 162
172 172 170 173 176 174 166 161 164 175 184 185 188 195 193 185 184 177 181 184 186 177 169 174 176 169 167 161 156 152 155 141 149 142 132 125 133 145 137 151 151 142 151
174 174 172 173 168 165 163 164 170 173 178 182 185 187 191 179 167 177 189 189 187 177 174 175 170 167 167 159 158 166 160 153 147 138 141 146 144 136 136 136 125 120 125
170 163 157 144 140 155 170 169 175 179 184 178 165 172 176 164 166 176 189 186 184 180 180 176 172 174 175 168 165 177 171 164 162 164 145 158 156 138 139 139 133 130 127
148 137 136 148 163 173 179 176 184 189 182 162 154 154 160 156 167 177 178 175 174 175 177 178 181 176 173 170 172 173 170 171 171 168 163 170 154 153 152 147 140 135 124
159 161 169 177 186 193 191 180 198 187 173 162 155 161 173 172 177 180 172 176 180 176 181 182 181 175 170 170 175 166 159 158 159 165 170 170 165 170 167 156 150 136 121
168 176 182 188 187 192 195 185 195 185 168 158 159 178 184 174 167 164 159 159 172 184 179 167 171 170 169 177 172 166 157 154 151 152 167 168 165 163 162 157 156 144 135
198 193 191 192 197 199 199 191 191 179 157 158 168 173 166 164 160 152 135 133 142 161 160 167 173 181 191 179 171 161 151 151 152 160 170 158 151 145 147 145 151 151 151
207 199 204 205 204 202 189 191 191 167 150 152 151 152 165 167 165 155 134 137 141 128 148 173 170 177 186 172 163 157 152 155 167 173 170 168 152 130 135 130 132 145 156
206 205 206 208 205 195 181 165 157 156 159 158 156 158 168 171 163 147 151 160 149 142 155 169 170 171 182 167 159 153 151 153 168 174 170 167 169 157 146 134 126 134 161
206 203 199 196 186 186 177 151 146 155 165 179 185 187 185 176 163 162 166 165 153 159 177 182 175 176 184 167 159 150 152 159 181 185 175 171 173 160 145 141 143 139 154
206 187 183 175 176 189 168 155 167 170 194 204 203 201 190 177 173 181 178 169 165 180 184 194 185 182 184 173 164 157 158 162 175 169 181 172 165 157 150 153 155 161 187
193 170 167 178 191 184 165 167 179 205 218 214 201 193 188 184 179 175 169 162 160 160 170 181 191 189 187 182 175 169 169 171 169 176 193 198 175 165 162 161 168 177 166
168 161 169 190 193 181 173 182 204 216 207 197 194 186 188 188 174 164 169 166 159 160 166 164 184 222 211 192 187 181 178 169 169 187 201 198 179 174 169 172 173 158 141
191 182 176 189 201 192 187 196 213 204 193 191 191 193 188 179 168 170 173 168 163 169 184 186 201 218 224 204 189 185 183 176 177 190 189 186 178 175 178 181 173 159 151
212 197 175 187 209 207 203 204 202 191 183 186 192 191 186 184 179 179 179 181 185 190 197 204 211 221 218 209 199 195 191 182 180 183 175 167 167 168 173 174 175 173 178
215 198 199 206 211 209 211 208 191 179 179 186 191 191 192 189 190 198 202 202 206 200 202 212 208 204 218 220 202 189 195 196 188 158 136 145 159 179 193 196 194 189 184
223 224 221 213 209 200 207 206 192 178 177 186 191 194 193 192 192 203 243 251 230 223 217 214 212 220 218 210 202 203 200 188 168 152 178 198 203 205 208 209 211 209 209
Height
1531 1532 1533 1534 1535 1535 1536 1536 1537 1538 1539 1540 1541 1542 1543 1544 1545 1546 1547 1547 1548 1549 1550 1550 1551 1552 1552 1553 1554 1554 1554 1555 1555 1555 1556 1556 1556 1556 1556 1556 1555 1554 1554
1530 1531 1532 1533 1533 1534 1534 1535 1536 1537 1538 1539 1540 1541 1542 1544 1545 1546 1546 1547 1548 1548 1549 1550 1550 1551 1552 1553 1553 1554 1554 1555 1555 1555 1555 1556 1558 1557 1557 1557 1556 1555 1555
1527 1528 1530 1531 1532 1532 1533 1534 1535 1536 1537 1538 1539 1541 1542 1543 1544 1545 1546 1546 1547 1548 1549 1549 1550 1551 1552 1552 1553 1554 1554 1554 1555 1555 1556 1556 1556 1557 1557 1557 1556 1556 1555
1525 1526 1528 1529 1530 1531 1532 1533 1534 1535 1536 1537 1538 1539 1540 1541 1543 1544 1545 1546 1547 1548 1548 1549 1550 1550 1551 1552 1552 1553 1554 1554 1554 1555 1555 1556 1556 1556 1556 1557 1557 1556 1556
1523 1525 1526 1527 1528 1530 1531 1532 1533 1534 1535 1537 1538 1538 1539 1541 1542 1544 1544 1545 1546 1547 1548 1548 1549 1550 1550 1551 1552 1552 1553 1553 1553 1554 1554 1554 1555 1555 1555 1555 1556 1556 1555
1522 1523 1524 1526 1527 1528 1529 1531 1532 1533 1535 1536 1537 1537 1539 1540 1541 1542 1543 1544 1545 1546 1547 1547 1548 1549 1549 1550 1551 1552 1552 1552 1552 1553 1553 1553 1553 1553 1553 1553 1554 1554 1555
1520 1521 1522 1524 1525 1526 1528 1529 1531 1532 1534 1535 1535 1536 1538 1539 1540 1541 1542 1543 1544 1544 1545 1546 1547 1548 1549 1549 1550 1551 1551 1551 1551 1552 1552 1552 1552 1552 1552 1552 1552 1553 1553
1518 1519 1520 1522 1523 1525 1526 1528 1530 1531 1532 1533 1534 1535 1536 1537 1538 1539 1540 1541 1542 1543 1544 1545 1546 1547 1548 1548 1549 1549 1550 1550 1550 1550 1551 1551 1551 1551 1551 1551 1551 1551 1552
1517 1518 1519 1520 1521 1523 1525 1526 1528 1529 1531 1532 1533 1534 1534 1535 1536 1537 1539 1540 1541 1542 1543 1544 1545 1546 1546 1547 1548 1548 1548 1549 1549 1549 1549 1549 1549 1549 1549 1550 1550 1550 1549
1516 1517 1518 1519 1520 1522 1524 1525 1527 1528 1529 1530 1531 1532 1533 1534 1535 1536 1537 1538 1539 1540 1541 1542 1543 1544 1545 1545 1546 1546 1547 1547 1548 1548 1548 1548 1548 1548 1548 1548 1548 1549 1549
1514 1515 1517 1518 1520 1521 1522 1524 1525 1526 1527 1528 1529 1530 1531 1532 1533 1534 1535 1536 1537 1538 1539 1540 1541 1541 1542 1543 1544 1545 1545 1546 1546 1546 1546 1546 1547 1547 1547 1547 1547 1547 1548
1513 1514 1515 1517 1518 1519 1521 1522 1523 1524 1525 1526 1527 1528 1529 1530 1531 1532 1533 1534 1535 1536 1537 1538 1539 1539 1540 1541 1542 1543 1543 1544 1544 1544 1545 1545 1545 1545 1546 1546 1546 1546 1546
1513 1514 1515 1515 1516 1518 1519 1520 1521 1522 1523 1524 1525 1526 1527 1528 1529 1530 1531 1532 1533 1534 1535 1536 1536 1537 1538 1539 1540 1540 1541 1541 1542 1543 1543 1543 1544 1544 1544 1544 1545 1545 1545
1512 1513 1513 1514 1515 1516 1517 1518 1519 1520 1521 1522 1523 1524 1525 1526 1527 1528 1529 1530 1531 1532 1533 1534 1534 1535 1536 1537 1537 1538 1538 1539 1540 1541 1541 1542 1542 1542 1542 1543 1543 1543 1544
1511 1512 1512 1513 1514 1514 1515 1516 1517 1518 1519 1520 1521 1522 1523 1524 1525 1526 1527 1528 1529 1529 1530 1531 1532 1533 1534 1535 1535 1536 1536 1537 1538 1539 1539 1540 1540 1541 1541 1541 1541 1542 1542
1510 1510 1511 1511 1511 1512 1513 1514 1515 1516 1517 1518 1519 1520 1520 1521 1523 1524 1525 1526 1527 1527 1528 1529 1530 1531 1531 1532 1533 1534 1534 1535 1536 1536 1537 1538 1538 1539 1539 1540 1540 1541 1541
1508 1508 1508 1509 1509 1510 1511 1512 1513 1514 1515 1515 1517 1518 1518 1519 1520 1522 1523 1524 1524 1525 1526 1526 1527 1528 1529 1530 1531 1531 1532 1533 1533 1534 1535 1535 1536 1537 1537 1538 1538 1539 1540
1505 1505 1506 1506 1507 1508 1509 1510 1511 1512 1513 1513 1514 1515 1516 1517 1518 1519 1520 1521 1522 1523 1523 1524 1525 1526 1526 1527 1528 1529 1530 1530 1531 1532 1532 1533 1533 1534 1535 1535 1536 1537 1537
1501 1502 1503 1504 1505 1506 1507 1508 1509 1510 1511 1512 1513 1513 1514 1515 1516 1517 1518 1519 1520 1521 1521 1522 1523 1523 1524 1525 1526 1527 1528 1528 1529 1529 1530 1531 1531 1532 1533 1533 1533 1534 1535
1498 1498 1500 1501 1503 1504 1505 1506 1507 1507 1508 1509 1510 1511 1512 1513 1514 1515 1516 1517 1518 1518 1519 1520 1520 1521 1521 1522 1523 1525 1525 1525 1526 1527 1528 1528 1529 1529 1530 1531 1531 1532 1533
1496 1496 1497 1498 1500 1501 1502 1503 1504 1505 1506 1507 1508 1509 1510 1511 1512 1513 1514 1514 1515 1516 1516 1517 1518 1519 1519 1520 1521 1522 1522 1523 1524 1524 1525 1525 1526 1527 1528 1528 1529 1530 1531
1493 1494 1494 1495 1497 1498 1499 1500 1501 1502 1503 1504 1505 1506 1507 1508 1509 1510 1511 1512 1513 1513 1513 1514 1515 1516 1516 1517 1518 1519 1520 1521 1521 1521 1522 1523 1523 1524 1525 1526 1526 1527 1528
1491 1492 1492 1493 1494 1495 1496 1497 1498 1499 1500 1501 1502 1503 1505 1506 1507 1507 1508 1509 1510 1510 1511 1511 1512 1512 1513 1514 1515 1516 1517 1517 1518 1518 1519 1520 1521 1521 1522 1523 1524 1524 1525
1489 1490 1490 1490 1491 1492 1493 1494 1495 1496 1497 1498 1499 1501 1502 1502 1503 1504 1505 1506 1506 1507 1507 1508 1508 1509 1510 1510 1511 1512 1513 1514 1514 1515 1516 1517 1517 1518 1518 1519 1520 1520 1521
1487 1487 1487 1487 1488 1489 1490 1491 1492 1493 1494 1495 1496 1497 1498 1499 1500 1501 1502 1502 1503 1504 1504 1505 1505 1506 1506 1507 1508 1508 1509 1510 1510 1511 1511 1512 1513 1513 1514 1515 1515 1516 1517
1485 1485 1485 1485 1485 1486 1487 1488 1489 1490 1490 1491 1492 1494 1495 1496 1497 1497 1498 1499 1500 1500 1501 1502 1502 1502 1503 1504 1504 1505 1505 1506 1507 1507 1507 1507 1508 1508 1509 1510 1511 1511 1512